Regional Weather Roundup
Issued by NWS

Home | Current Version | Previous Version | Graphics & Text | Print | Product List | Glossary On
Versions: 1 2 3 4 5 6 7 8 9 10 11 12 13 14 15 16 17 18 19 20 21 22 23 24 25 26 27 28 29 30 31 32 33 34 35 36 37 38 39 40 41 42 43 44 45 46 47 48 49 50
000
ASUS45 KBOU 030210
RWRCO

WEATHER ROUNDUP FOR COLORADO
NATIONAL WEATHER SERVICE PUEBLO CO
800 PM MDT SUN AUG 02 2015

NOTE: "FAIR" INDICATES FEW OR NO CLOUDS BELOW 12000 FEET WITH NO
SIGNIFICANT WEATHER AND/OR OBSTRUCTIONS TO VISIBILITY.

COZ001>005-013-030-031-030300-
...NORTHWEST COLORADO...

CITY           SKY/WX    TMP DP  RH WIND       PRES   REMARKS
CRAIG          TSTM      64  53  67 SE30G40   30.16R
HAYDEN         CLOUDY    64  48  55 SE13      30.20R
MEEKER         CLOUDY    66  50  56 NW10      30.17R
MOUNT WERNER   NOT AVBL
STEAMBOAT SPGS CLOUDY    67  46  46 NE8       30.23R
WALDEN         MOCLDY    68  41  37 SW7       30.28R
$$

COZ006>008-011-030300-
...WEST CENTRAL VALLEYS...

CITY           SKY/WX    TMP DP  RH WIND       PRES   REMARKS
GRAND JUNCTION LGT RAIN  67  60  78 E16       30.10R
MONTROSE       LGT RAIN  64  61  90 E6        30.20R
EAGLE          CLOUDY    68  48  49 W12       30.25R
RIFLE          RAIN      62  58  86 N3        30.21R
DELTA          NOT AVBL
NUCLA          FAIR      64  59  82 SE3       30.18S
$$

COZ017>023-064>068-030300-
...SOUTHWEST COLORADO...

CITY           SKY/WX    TMP DP  RH WIND       PRES   REMARKS
DURANGO        CLOUDY    59  55  87 NE13      30.22R
CORTEZ         MOCLDY    69  58  67 W14       30.15R
PAGOSA SPRINGS RAIN      58  56  95 N5        30.32R
TELLURIDE      MOCLDY    55  54  97 E5        30.37S
WOLF CREEK PAS NOT AVBL
$$

COZ009-010-012-014-032>034-037-058>063-030300-
...CENTRAL COLORADO...

CITY           SKY/WX    TMP DP  RH WIND       PRES   REMARKS
ASPEN          LGT RAIN  56  53  90 S7        30.34R
BUENA VISTA    LGT RAIN  58  51  77 NE5       30.34R
COPPER MTN     CLOUDY    54  34  47 E14       30.59S
BERTHOUD PASS  CLOUDY    45  34  65 SE10      30.65S
COTTONWOOD PAS RAIN      55  48  76 E8        30.47R
GUNNISON       CLOUDY    61  54  77 NE6       30.34R
KREMMLING      CLOUDY    70  36  28 SW7       30.25R
LEADVILLE      CLOUDY    52  46  80 SE7       30.44R
MONARCH PASS   DRIZZLE   45  41  87 E8        30.69S
SALIDA         CLOUDY    63  56  78 W3        30.37R
NIWOT RIDGE    NOT AVBL
SUNLIGHT       RAIN      48  46  93 E3        30.55R
WILKERSON PASS CLOUDY    46  43  87 S14G29    30.59R
$$

COZ069>075-030300-
...SAN LUIS VALLEY/SANGRE DE CRISTO MOUNTAINS...

CITY           SKY/WX    TMP DP  RH WIND       PRES   REMARKS
ALAMOSA        CLOUDY    63  53  70 S6        30.27S
LA VETA PASS   CLOUDY    52  45  76 MISG      30.46S
SAGUACHE       LGT RAIN  57  54  88 N6        30.33R
$$

COZ035-036-038>040-030300-
...NORTHERN COLORADO FRONT RANGE...

CITY           SKY/WX    TMP DP  RH WIND       PRES   REMARKS
DENVER INTL AP CLOUDY    75  45  34 SW7       30.08R
DMNS CITY PARK NOT AVBL
AURORA         CLOUDY    75  49  40 SE9       30.11R
FRONT RANGE AP MOCLDY    75  43  31 S12       30.10R
ERIE MUNI ARPT FAIR      75  45  34 SW7       30.06S
BOULDER MUN AP FAIR      75  46  35 S5        30.07S
CENTENNIAL     CLOUDY    69  53  56 SW14      30.12F
BROOMFIELD     CLOUDY    73  46  38 SW12      30.10F
LOVELAND       MOCLDY    77  46  33 S10       30.04R
LONGMONT       FAIR      78  46  32 S8        30.06S
$$

COZ041-046-047-076>085-087-088-030300-
...PIKES PEAK/PALMER DIVIDE AND SOUTHERN FOOTHILLS...

CITY           SKY/WX    TMP DP  RH WIND       PRES   REMARKS
COLO. SPRINGS  CLOUDY    73  48  41 N12       30.18R
A. F. ACADEMY  DRIZZLE   69  47  45 N5        30.20R
ELLICOTT       FLURRIES N/A N/A N/A NE3       30.14R
FALCON         LGT RAIN  69  47  45 W5        30.24R
FORT CARSON    CLOUDY    73  50  44 N15       30.13R
LIMON          CLOUDY    78  45  30 SE6       30.09R
MONUMENT HILL  NOT AVBL
TRINIDAD       LGT RAIN  64  57  78 SW17      30.13F
$$

COZ042>045-048>051-090-091-030300-
...NORTHEAST COLORADO...

CITY           SKY/WX    TMP DP  RH WIND       PRES   REMARKS
GREELEY ARPT   CLOUDY    79  48  34 SW14      30.04R
AKRON          CLOUDY    77  50  38 SE8       30.03R
BURLINGTON     MOCLDY    77  56  48 S9        30.01R
WRAY           FAIR      80  53  39 SE12G17   29.99R
STERLING       FAIR      81  52  36 CALM      29.97R
HOLYOKE        FAIR      81  55  41 SE9       29.99R
FORT MORGAN    FAIR      80  45  29 W3        30.03R
$$

COZ086-089-092>099-030300-
...SOUTHEAST COLORADO...

CITY           SKY/WX    TMP DP  RH WIND       PRES   REMARKS
PUEBLO         CLOUDY    84  50  30 S14G23    30.02R
LA JUNTA       CLOUDY    87  42  20 SE10      30.00R
LAMAR          MOCLDY    85  52  32 SE9       29.96R
SPRINGFIELD      N/A     79  62  56 SE7       30.02S
$$



USA.gov is the U.S. government's official web portal to all federal, state and local government web resources and services.